THOR ABLESTAR DEB, 324

Orbit data source: Space-Track

THOR ABLESTAR DEB, 324 is space debris in LEO originally from a launch on Thu, 29 Jun 1961 UTC launched from the Air Force Eastern Test Range (AFETR). Debris objects in space refer to the collection of defunct objects orbiting the Earth. Examples of debris include non-operational satellites, rocket bodies, and fragments generated from explosions, collisions, or faulty payload assembly.

Loading next visibility...
Identifier
324, 1961-015DA
Orbit
LEO
Last TLE update
14 hours ago
Origin
Manufacturer
Unknown
Mission
Spacecraft
Bus & Motor
Unknown
Mass
Unknown
Launch date (UTC)
1961-06-29 (64 years ago)
Launch vehicle
Unknown
Launch site
Air Force Eastern Test Range (AFETR)
Object type
Payload
Rocket body
Debris
Shape & HBR
Unknown
Radar Cross Section
Small (<0.1 m²)

Expand to show TLE details & history

TLE from 14 hours ago
0 THOR ABLESTAR DEB
1 00324U 61015DA  25128.72206001  .00000589  00000-0  35126-3 0  9990
2 00324  66.8646 333.1902 0071506 322.5915  37.0208 14.12833862265926
Epoch: 2025-05-08T17:19Z
Definitive object data (Epoch: 2025-05-08T17:19:45.984Z)
Latitude
-0.00012°
Longitude
-153.53993°
Altitude
810.659 km
Speed
7.47 km/s
True Right ascension
22h 12m 45s
True Declination
0° 00' 00"
Sunlit
Object was in daylight at TLE epoch
Visualization TLE readout
Latitude
20.06665°
Longitude
16.0195°
Altitude
901.052 km
Speed
7.378 km/s
Apparent Right ascension
07h 14m 50s
Apparent Declination
-10° 18' 37"
Sunlit
Object is in daylight
Visualization observer readout
Local Sidereal Time
15:49:14
Azimuth
288.454° WNW
Elevation
-35.847°
Doppler factor
1
Orbital elements
Apogee altitude
899.731 km
Perigee altitude
796.388 km
Semi-major axis
7,226.196 km
Eccentricity
0.0071506
Inclination
66.8646°
RAAN
333.1902°
Arg. of periapsis
322.5915°
True anomaly
37.5177°
Mean anomaly
37.0208°
Eccentric anomaly
37.2689°
Mean motion
3.53328 °/min
BSTAR
0.00035126
Orbital period
101.89 mins
Loading maneuver chart data...
Loading SW <> Apogee altitude chart data...

THOR ABLESTAR DEB Visibility forecast

Observer location: undefined°, undefined°

Span
Click to sort rows by Start time (UTC) header in descending order
Start Az.
Max El. time (UTC)
Max El. Az.
Max El.
End time (UTC)
End Az.
7 mins2025-05-09 13:50:12.708Z145.483° SSE2025-05-09 13:54:12.708Z98.833° ESE17.305°2025-05-09 13:57:12.708Z65.407° ENE
9 mins2025-05-09 15:34:12.708Z225.864° WSW2025-05-09 15:38:12.708Z317.019° NNW41.311°2025-05-09 15:43:12.708Z22.114° NNE
7 mins2025-05-09 22:45:12.708Z10.441° NNE2025-05-09 22:48:12.708Z47.25° ENE19.078°2025-05-09 22:52:12.708Z90.279° ESE
10 mins2025-05-10 00:29:12.708Z326.796° NNW2025-05-10 00:33:12.708Z266.62° W44.234°2025-05-10 00:39:12.708Z158.579° S
|